Location: ???????
(55.3754°N, 39.3545°E)
Time: 07:26:16
(UTC+00:00)

Helios 1A - Pass Details

Date: 14 April 2026
Orbit: 541 x 559 km, 98.2° (Epoch: 13 May)

Event Time Altitude Azimuth Distance (km) Brightness Sun altitude
Rises 19:38:55 0° 17° (NNE) 2,757 7.1 -21.5°
Reaches altitude 10° 19:41:06 10° 21° (NNE) 1,855 6.0 -21.6°
Enters shadow 19:44:52 60° 86° (E) 641 2.9 -21.8°
